Time,TemperatureF,DewpointF,PressureIn,WindDirection,WindDirectionDegrees,WindSpeedMPH,WindSpeedGustMPH,Humidity,HourlyPrecipIn,Conditions,Clouds,dailyrainin,SolarRadiationWatts/m^2,SoftwareType,DateUTC
2013-10-06 00:02:00,55.0,49.0,-100.00,East,83,4.0,8.0,80,0.00,,,0.00,0.000000,,2013-10-06 07:02:00,
2013-10-06 00:42:00,54.0,48.0,-100.00,East,94,4.0,9.0,79,0.00,,,0.00,0.000000,,2013-10-06 07:42:00,
2013-10-06 00:52:00,54.0,48.0,-100.00,East,94,4.0,9.0,79,0.00,,,0.00,0.000000,,2013-10-06 07:52:00,
2013-10-06 01:02:00,54.0,48.0,-100.00,East,94,4.0,9.0,79,0.00,,,0.00,0.000000,,2013-10-06 08:02:00,
2013-10-06 01:42:00,55.0,48.0,-100.00,East,82,5.0,10.0,76,0.00,,,0.00,0.000000,,2013-10-06 08:42:00,
2013-10-06 01:52:00,55.0,48.0,-100.00,East,82,5.0,10.0,76,0.00,,,0.00,0.000000,,2013-10-06 08:52:00,
2013-10-06 02:01:00,55.0,48.0,-100.00,East,82,5.0,10.0,76,0.00,,,0.00,0.000000,,2013-10-06 09:01:00,
2013-10-06 02:43:00,52.0,46.0,-100.00,East,85,2.0,9.0,79,0.00,,,0.00,0.000000,,2013-10-06 09:43:00,
2013-10-06 02:53:00,52.0,46.0,-100.00,East,85,2.0,9.0,79,0.00,,,0.00,0.000000,,2013-10-06 09:53:00,
2013-10-06 03:03:00,52.0,46.0,-100.00,East,85,2.0,9.0,79,0.00,,,0.00,0.000000,,2013-10-06 10:03:00,
2013-10-06 03:43:00,52.0,46.0,-100.00,ENE,71,4.0,9.0,81,0.00,,,0.00,0.000000,,2013-10-06 10:43:00,
2013-10-06 03:53:00,52.0,46.0,-100.00,ENE,71,4.0,9.0,81,0.00,,,0.00,0.000000,,2013-10-06 10:53:00,
2013-10-06 04:02:00,52.0,46.0,-100.00,ENE,71,4.0,9.0,81,0.00,,,0.00,0.000000,,2013-10-06 11:02:00,
2013-10-06 04:42:00,52.0,47.0,-100.00,ENE,68,5.0,8.0,82,0.00,,,0.00,0.000000,,2013-10-06 11:42:00,
2013-10-06 04:52:00,52.0,47.0,-100.00,ENE,68,5.0,8.0,82,0.00,,,0.00,0.000000,,2013-10-06 11:52:00,
2013-10-06 05:02:00,52.0,47.0,-100.00,ENE,68,5.0,8.0,82,0.00,,,0.00,0.000000,,2013-10-06 12:02:00,
2013-10-06 05:42:00,51.0,46.0,-100.00,ENE,76,5.0,9.0,83,0.00,,,0.00,0.000000,,2013-10-06 12:42:00,
2013-10-06 05:52:00,51.0,46.0,-100.00,ENE,76,5.0,9.0,83,0.00,,,0.00,0.000000,,2013-10-06 12:52:00,
2013-10-06 06:02:00,51.0,46.0,-100.00,ENE,76,5.0,9.0,83,0.00,,,0.00,0.000000,,2013-10-06 13:02:00,
2013-10-06 06:42:00,51.0,46.0,-100.00,ENE,78,3.0,8.0,84,0.00,,,0.00,0.000000,,2013-10-06 13:42:00,
2013-10-06 06:52:00,51.0,46.0,-100.00,ENE,78,3.0,8.0,84,0.00,,,0.00,0.000000,,2013-10-06 13:52:00,
2013-10-06 07:02:00,51.0,46.0,-100.00,ENE,78,3.0,8.0,84,0.00,,,0.00,0.000000,,2013-10-06 14:02:00,
2013-10-06 07:42:00,46.0,44.0,-100.00,SSE,166,0.0,7.0,94,0.00,,,0.00,0.000000,,2013-10-06 14:42:00,
2013-10-06 07:52:00,46.0,44.0,-100.00,SSE,166,0.0,7.0,94,0.00,,,0.00,0.000000,,2013-10-06 14:52:00,
2013-10-06 08:02:00,46.0,44.0,-100.00,SSE,166,0.0,7.0,94,0.00,,,0.00,0.000000,,2013-10-06 15:02:00,
2013-10-06 08:44:00,44.0,44.0,-100.00,SSE,162,0.0,3.0,100,0.00,,,0.00,7.000000,,2013-10-06 15:44:00,
2013-10-06 08:54:00,44.0,44.0,-100.00,SSE,162,0.0,3.0,100,0.00,,,0.00,7.000000,,2013-10-06 15:54:00,
2013-10-06 09:03:00,44.0,44.0,-100.00,SSE,162,0.0,3.0,100,0.00,,,0.00,7.000000,,2013-10-06 16:03:00,
2013-10-06 09:43:00,55.0,55.0,-100.00,NNE,16,0.0,0.0,100,0.00,,,0.00,143.000000,,2013-10-06 16:43:00,
2013-10-06 09:53:00,55.0,55.0,-100.00,NNE,16,0.0,0.0,100,0.00,,,0.00,143.000000,,2013-10-06 16:53:00,
2013-10-06 10:02:00,55.0,55.0,-100.00,NNE,16,0.0,0.0,100,0.00,,,0.00,143.000000,,2013-10-06 17:02:00,
2013-10-06 12:42:00,70.0,45.0,-100.00,WSW,251,6.0,25.0,40,0.00,,,0.00,639.000000,,2013-10-06 19:42:00,
2013-10-06 12:52:00,70.0,45.0,-100.00,WSW,251,6.0,25.0,40,0.00,,,0.00,639.000000,,2013-10-06 19:52:00,
2013-10-06 13:02:00,70.0,45.0,-100.00,WSW,251,6.0,25.0,40,0.00,,,0.00,639.000000,,2013-10-06 20:02:00,
2013-10-06 13:42:00,66.0,51.0,-100.00,SSW,211,9.0,15.0,59,0.00,,,0.00,689.000000,,2013-10-06 20:42:00,
2013-10-06 13:52:00,66.0,51.0,-100.00,SSW,211,9.0,15.0,59,0.00,,,0.00,689.000000,,2013-10-06 20:52:00,
2013-10-06 14:01:00,66.0,51.0,-100.00,SSW,211,9.0,15.0,59,0.00,,,0.00,689.000000,,2013-10-06 21:01:00,
2013-10-06 14:44:00,66.0,55.0,-100.00,SSW,198,11.0,23.0,67,0.00,,,0.00,684.000000,,2013-10-06 21:44:00,
2013-10-06 14:54:00,66.0,55.0,-100.00,SSW,198,11.0,23.0,67,0.00,,,0.00,684.000000,,2013-10-06 21:54:00,
2013-10-06 15:03:00,66.0,55.0,-100.00,SSW,198,11.0,23.0,67,0.00,,,0.00,684.000000,,2013-10-06 22:03:00,
2013-10-06 15:43:00,63.0,55.0,-100.00,SSW,210,9.0,19.0,74,0.00,,,0.00,626.000000,,2013-10-06 22:43:00,
2013-10-06 15:53:00,63.0,55.0,-100.00,SSW,210,9.0,19.0,74,0.00,,,0.00,626.000000,,2013-10-06 22:53:00,
2013-10-06 16:03:00,63.0,55.0,-100.00,SSW,210,9.0,19.0,74,0.00,,,0.00,626.000000,,2013-10-06 23:03:00,
2013-10-06 16:42:00,61.0,55.0,-100.00,SSW,210,6.0,21.0,82,0.00,,,-99.99,359.000000,,2013-10-06 23:42:00,
2013-10-06 16:53:00,61.0,55.0,-100.00,SSW,210,6.0,21.0,82,0.00,,,-99.99,359.000000,,2013-10-06 23:53:00,
2013-10-06 17:02:00,61.0,55.0,-100.00,SSW,210,6.0,21.0,82,0.00,,,-99.99,359.000000,,2013-10-07 00:02:00,
2013-10-06 17:42:00,62.0,57.0,-100.00,SSW,201,8.0,17.0,83,0.00,,,0.00,204.000000,,2013-10-07 00:42:00,
2013-10-06 17:52:00,62.0,57.0,-100.00,SSW,201,8.0,17.0,83,0.00,,,0.00,204.000000,,2013-10-07 00:52:00,
2013-10-06 18:02:00,62.0,57.0,-100.00,SSW,201,8.0,17.0,83,0.00,,,0.00,204.000000,,2013-10-07 01:02:00,
2013-10-06 18:42:00,61.0,57.0,-100.00,South,191,8.0,16.0,88,0.00,,,0.00,66.000000,,2013-10-07 01:42:00,
2013-10-06 18:53:00,61.0,57.0,-100.00,South,191,8.0,16.0,88,0.00,,,0.00,66.000000,,2013-10-07 01:53:00,
2013-10-06 19:02:00,61.0,57.0,-100.00,South,191,8.0,16.0,88,0.00,,,0.00,66.000000,,2013-10-07 02:02:00,
2013-10-06 19:42:00,58.0,56.0,-100.00,South,191,6.0,15.0,93,0.00,,,0.00,15.000000,,2013-10-07 02:42:00,
2013-10-06 19:53:00,58.0,56.0,-100.00,South,191,6.0,15.0,93,0.00,,,0.00,15.000000,,2013-10-07 02:53:00,
2013-10-06 20:02:00,58.0,56.0,-100.00,South,191,6.0,15.0,93,0.00,,,0.00,15.000000,,2013-10-07 03:02:00,
2013-10-06 20:04:00,57.0,56.0,-100.00,South,183,6.0,12.0,97,0.00,,,0.00,0.000000,,2013-10-07 03:04:00,
2013-10-06 20:44:00,57.0,56.0,-100.00,South,183,6.0,12.0,97,0.00,,,0.00,0.000000,,2013-10-07 03:44:00,
2013-10-06 20:54:00,57.0,56.0,-100.00,South,183,6.0,12.0,97,0.00,,,0.00,0.000000,,2013-10-07 03:54:00,
2013-10-06 21:44:00,57.0,57.0,-100.00,South,186,6.0,13.0,99,0.00,,,0.00,0.000000,,2013-10-07 04:44:00,
2013-10-06 21:53:00,57.0,57.0,-100.00,South,186,6.0,13.0,99,0.00,,,0.00,0.000000,,2013-10-07 04:53:00,
2013-10-06 22:03:00,57.0,57.0,-100.00,South,186,6.0,13.0,99,0.00,,,0.00,0.000000,,2013-10-07 05:03:00,
2013-10-06 22:43:00,57.0,57.0,-100.00,South,185,7.0,14.0,99,0.00,,,0.00,0.000000,,2013-10-07 05:43:00,
2013-10-06 22:52:00,57.0,57.0,-100.00,South,185,7.0,14.0,99,0.00,,,0.00,0.000000,,2013-10-07 05:52:00,
2013-10-06 23:03:00,57.0,57.0,-100.00,South,185,7.0,14.0,99,0.00,,,0.00,0.000000,,2013-10-07 06:03:00,
2013-10-06 23:42:00,57.0,57.0,-100.00,South,184,6.0,13.0,100,0.00,,,0.00,0.000000,,2013-10-07 06:42:00,
2013-10-06 23:52:00,57.0,57.0,-100.00,South,184,6.0,13.0,100,0.00,,,0.00,0.000000,,2013-10-07 06:52:00,